Volver al catálogo

COSMOS 2491 DEB

LostPO
NORAD 45031·DEBRIS·🇷🇺 Russia

Lanzado Dec 25, 2013 desde Plesetsk Cosmodrome

Loading…

Próximos Pases (próximas 24 horas)

TLE

ObsoletoSource: Space-Track

Época: Apr 3, 2026, 10:35 UTC

1 45031U 13076U   26093.44149106 -.00007740  00000-0 -42277-1 0  9992
2 45031  82.3920 166.2723 0096865 349.0422  10.8558 12.62860212286827

Sigue COSMOS 2491 DEB en tiempo real con AllMySat

Download on the App Store